Weather History for KMTV - October, 2011

Change the Weather History Date:

Saturday, October 1, 2011

  Actual Average (KGSO) Record (KGSO)
Temperature  
Mean Temperature 52 °F 64 °F  
Max Temperature 60 °F 75 °F 90 °F (1933)
Min Temperature 44 °F 54 °F 35 °F (1924)
Degree Days  
Heating Degree Days 13 3  
Month to date heating degree days 3  
Since 1 July heating degree days 34  
Cooling Degree Days 0 3  
Month to date cooling degree days 3  
Year to date cooling degree days 1450  
Growing Degree Days 2 (Base 50)    
Moisture  
Dew Point 43 °F    
Average Humidity 68    
Maximum Humidity 87    
Minimum Humidity 52    
Precipitation  
Precipitation 0.00 in 0.10 in 4.06 in (1929)
Month to date precipitation 0.10  
Year to date precipitation 33.08  
Sea Level Pressure  
Sea Level Pressure 29.90 in    
Wind  
Wind Speed 11 mph (NW)    
Max Wind Speed 21 mph    
Max Gust Speed 26 mph    
Visibility 10 miles    
Events Rain    
T = Trace of Precipitation, MM = Missing Value Source: NWS Daily Summary

Daily Weather History Graph

Daily Weather History Graph

Search for Another Location

Airport or City:

Trip Planner

Search our weather history database for the weather conditions in past years. The results will help you decide how hot, cold, wet, or windy it might be!

Date:

Astronomy

Oct. 01, 2011 Rise Set
Actual Time 7:15 AM EDT 7:03 PM EDT
Civil Twilight 6:49 AM EDT 7:29 PM EDT
Nautical Twilight 6:19 AM EDT 7:59 PM EDT
Astronomical Twilight 5:49 AM EDT 8:29 PM EDT
Moon 12:10 PM EDT (10/1) 10:08 PM EDT (10/1)
Length of Visible Light 12h 40m
Length of Day
11h 48m
Waxing Crescent, 24% of the Moon is Illuminated
Oct 1
Waxing Crescent
Oct 3
First Quarter
Oct 11
Full
Oct 19
Last Quarter
Oct 26
New

Hourly Weather History & Observations

Time (EDT) Temp. Windchill Dew Point Humidity Pressure Visibility Wind Dir Wind Speed Gust Speed Precip Events Conditions
12:15 AM 60.8 °F - 48.2 °F 63% 29.84 in 10.0 mi NNW 19.6 mph 26.5 mph N/A   Overcast
12:35 AM 57.2 °F - 51.8 °F 82% 29.84 in 10.0 mi NNW 12.7 mph - N/A Rain Light Rain
12:55 AM 57.2 °F - 48.2 °F 72% 29.85 in 10.0 mi WNW 12.7 mph 21.9 mph N/A   Mostly Cloudy
1:15 AM 55.4 °F - 46.4 °F 72% 29.85 in 10.0 mi NW 11.5 mph 17.3 mph N/A   Scattered Clouds
1:35 AM 55.4 °F - 46.4 °F 72% 29.85 in 10.0 mi NW 11.5 mph 19.6 mph N/A   Clear
1:55 AM 55.4 °F - 44.6 °F 67% 29.85 in 10.0 mi WNW 13.8 mph 25.3 mph N/A   Clear
2:15 AM 53.6 °F - 44.6 °F 72% 29.86 in 10.0 mi NW 11.5 mph 23.0 mph N/A   Clear
2:35 AM 53.6 °F - 44.6 °F 72% 29.85 in 10.0 mi NW 8.1 mph - N/A   Clear
2:55 AM 51.8 °F - 42.8 °F 71% 29.84 in 10.0 mi NW 6.9 mph - N/A   Clear
3:15 AM 51.8 °F - 42.8 °F 71% 29.84 in 10.0 mi WNW 8.1 mph - N/A   Clear
3:35 AM 51.8 °F - 42.8 °F 71% 29.84 in 10.0 mi WNW 8.1 mph - N/A   Clear
4:15 AM 48.2 °F - 42.8 °F 82% 29.85 in 10.0 mi WNW 4.6 mph - N/A   Clear
4:35 AM 48.2 °F - 42.8 °F 82% 29.85 in 10.0 mi WNW 4.6 mph - N/A   Clear
4:55 AM 46.4 °F 42.9 °F 42.8 °F 87% 29.85 in 10.0 mi NW 6.9 mph - N/A   Clear
5:15 AM 46.4 °F 44.3 °F 42.8 °F 87% 29.85 in 10.0 mi NW 4.6 mph - N/A   Clear
5:35 AM 48.2 °F - 42.8 °F 82% 29.86 in 10.0 mi NW 10.4 mph - N/A   Clear
5:55 AM 50.0 °F - 42.8 °F 76% 29.86 in 10.0 mi NW 8.1 mph 16.1 mph N/A   Clear
6:15 AM 48.2 °F - 42.8 °F 82% 29.87 in 10.0 mi NW 3.5 mph - N/A   Clear
6:35 AM 46.4 °F 43.5 °F 42.8 °F 87% 29.86 in 10.0 mi WNW 5.8 mph - N/A   Clear
6:55 AM 46.4 °F 45.2 °F 41.0 °F 81% 29.86 in 10.0 mi NW 3.5 mph - N/A   Clear
7:15 AM 44.6 °F - 41.0 °F 87% 29.86 in 10.0 mi Calm Calm - N/A   Clear
7:35 AM 46.4 °F - 41.0 °F 81% 29.86 in 10.0 mi Calm Calm - N/A   Clear
7:55 AM 46.4 °F - 42.8 °F 87% 29.87 in 10.0 mi Calm Calm - N/A   Clear
8:15 AM 48.2 °F - 42.8 °F 82% 29.87 in 10.0 mi Calm Calm - N/A   Clear
8:55 AM 53.6 °F - 42.8 °F 67% 29.88 in 10.0 mi NW 8.1 mph - N/A   Clear
9:15 AM 53.6 °F - 42.8 °F 67% 29.88 in 10.0 mi NNW 10.4 mph - N/A   Clear
9:35 AM 53.6 °F - 42.8 °F 67% 29.88 in 10.0 mi NW 12.7 mph 18.4 mph N/A   Clear
9:55 AM 55.4 °F - 42.8 °F 63% 29.89 in 10.0 mi NW 9.2 mph - N/A   Clear
10:15 AM 55.4 °F - 41.0 °F 58% 29.90 in 10.0 mi West 10.4 mph 24.2 mph N/A   Clear
10:35 AM 57.2 °F - 42.8 °F 59% 29.92 in 10.0 mi NW 12.7 mph 18.4 mph N/A   Scattered Clouds
10:55 AM 55.4 °F - 42.8 °F 63% 29.92 in 10.0 mi NNW 10.4 mph - N/A   Mostly Cloudy
11:15 AM 55.4 °F - 42.8 °F 63% 29.92 in 10.0 mi NW 10.4 mph 16.1 mph N/A   Mostly Cloudy
11:35 AM 55.4 °F - 42.8 °F 63% 29.93 in 10.0 mi NW 12.7 mph - N/A   Mostly Cloudy
11:55 AM 55.4 °F - 42.8 °F 63% 29.93 in 10.0 mi NW 15.0 mph 20.7 mph N/A   Overcast
12:15 PM 57.2 °F - 42.8 °F 59% 29.93 in 10.0 mi NNW 10.4 mph - N/A   Mostly Cloudy
12:35 PM 55.4 °F - 42.8 °F 63% 29.92 in 10.0 mi WNW 10.4 mph 17.3 mph N/A   Mostly Cloudy
12:55 PM 55.4 °F - 42.8 °F 63% 29.93 in 10.0 mi NW 11.5 mph - N/A   Scattered Clouds
1:15 PM 57.2 °F - 42.8 °F 59% 29.93 in 10.0 mi NW 10.4 mph 20.7 mph N/A   Scattered Clouds
1:35 PM 57.2 °F - 42.8 °F 59% 29.93 in 10.0 mi WNW 11.5 mph 18.4 mph N/A   Mostly Cloudy
2:15 PM 59.0 °F - 42.8 °F 55% 29.92 in 10.0 mi WNW 15.0 mph 24.2 mph N/A   Scattered Clouds
2:35 PM 60.8 °F - 42.8 °F 52% 29.92 in 10.0 mi NW 13.8 mph 21.9 mph N/A   Scattered Clouds
2:55 PM 60.8 °F - 42.8 °F 52% 29.92 in 10.0 mi NW 20.7 mph 26.5 mph N/A   Mostly Cloudy
3:15 PM 60.8 °F - 44.6 °F 55% 29.93 in 10.0 mi NW 15.0 mph 23.0 mph N/A   Scattered Clouds
3:35 PM 59.0 °F - 42.8 °F 55% 29.93 in 10.0 mi WNW 11.5 mph 19.6 mph N/A   Scattered Clouds
3:55 PM 59.0 °F - 42.8 °F 55% 29.94 in 10.0 mi NNW 16.1 mph 23.0 mph N/A   Scattered Clouds
4:15 PM 57.2 °F - 41.0 °F 55% 29.94 in 10.0 mi NW 18.4 mph 25.3 mph N/A   Scattered Clouds
4:35 PM 59.0 °F - 42.8 °F 55% 29.94 in 10.0 mi NNW 15.0 mph 25.3 mph N/A   Scattered Clouds
4:55 PM 57.2 °F - 42.8 °F 59% 29.95 in 10.0 mi NNW 19.6 mph 26.5 mph N/A   Clear
5:15 PM 57.2 °F - 42.8 °F 59% 29.95 in 10.0 mi NW 12.7 mph 20.7 mph N/A   Clear
5:35 PM 53.6 °F - 42.8 °F 67% 29.96 in 10.0 mi NW 11.5 mph 17.3 mph N/A   Clear
5:55 PM 53.6 °F - 42.8 °F 67% 29.97 in 10.0 mi NW 10.4 mph - N/A   Mostly Cloudy
6:15 PM 53.6 °F - 41.0 °F 62% 29.97 in 10.0 mi NW 9.2 mph - N/A   Mostly Cloudy
6:35 PM 53.6 °F - 42.8 °F 67% 29.97 in 10.0 mi NW 8.1 mph - N/A   Mostly Cloudy
6:55 PM 53.6 °F - 41.0 °F 62% 29.97 in 10.0 mi NW 17.3 mph 24.2 mph N/A   Scattered Clouds
7:15 PM 53.6 °F - 41.0 °F 62% 29.97 in 10.0 mi NW 9.2 mph 18.4 mph N/A   Clear
7:35 PM 51.8 °F - 42.8 °F 71% 29.96 in 10.0 mi NW 5.8 mph - N/A   Clear
7:55 PM 51.8 °F - 41.0 °F 67% 29.96 in 10.0 mi NW 10.4 mph - N/A   Clear
8:15 PM 51.8 °F - 42.8 °F 71% 29.97 in 10.0 mi NW 8.1 mph - N/A   Clear
8:35 PM 51.8 °F - 42.8 °F 71% 29.97 in 10.0 mi NW 4.6 mph - N/A   Clear
8:55 PM 51.8 °F - 42.8 °F 71% 29.97 in 10.0 mi NW 8.1 mph - N/A   Clear
9:15 PM 51.8 °F - 42.8 °F 71% 29.97 in 10.0 mi NNW 6.9 mph 18.4 mph N/A   Clear
9:35 PM 50.0 °F - 42.8 °F 76% 29.96 in 10.0 mi NW 9.2 mph - N/A   Clear
9:55 PM 50.0 °F - 42.8 °F 76% 29.96 in 10.0 mi NNW 5.8 mph - N/A   Clear
10:15 PM 48.2 °F - 42.8 °F 82% 29.96 in 10.0 mi Calm Calm - N/A   Scattered Clouds
10:35 PM 48.2 °F - 42.8 °F 82% 29.96 in 10.0 mi Calm Calm - N/A   Mostly Cloudy
10:55 PM 50.0 °F - 42.8 °F 76% 29.95 in 10.0 mi West 3.5 mph - N/A   Mostly Cloudy
11:15 PM 51.8 °F - 42.8 °F 71% 29.95 in 10.0 mi Calm Calm - N/A   Mostly Cloudy
11:35 PM 51.8 °F - 44.6 °F 76% 29.95 in 10.0 mi Calm Calm - N/A   Overcast
11:55 PM 53.6 °F - 44.6 °F 72% 29.95 in 10.0 mi NW 8.1 mph - N/A   Overcast